TimeCST,TemperatureF,Dew PointF,Humidity,Sea Level PressureIn,VisibilityMPH,Wind Direction,Wind SpeedMPH,Gust SpeedMPH,PrecipitationIn,Events,Conditions,WindDirDegrees,DateUTC
12:53 AM,26.1,24.1,92,30.15,7.0,North,3.5,-,N/A,,Clear,360,2013-02-06 06:53:00
1:53 AM,27.0,24.1,89,30.14,6.0,NNE,3.5,-,N/A,,Clear,20,2013-02-06 07:53:00
2:53 AM,23.0,19.9,88,30.14,3.0,ENE,3.5,-,N/A,,Clear,70,2013-02-06 08:53:00
3:49 AM,21.2,21.2,100,30.12,0.8,Calm,Calm,-,N/A,,Clear,0,2013-02-06 09:49:00
3:53 AM,21.0,19.9,96,30.15,0.5,Calm,Calm,-,N/A,Fog,Light Freezing Fog,0,2013-02-06 09:53:00
4:00 AM,24.8,21.2,86,30.12,0.2,Calm,Calm,-,N/A,Fog,Light Freezing Fog,0,2013-02-06 10:00:00
4:08 AM,21.2,21.2,100,30.12,0.8,SE,3.5,-,N/A,,Clear,140,2013-02-06 10:08:00
4:19 AM,21.2,19.4,93,30.12,2.5,SSE,3.5,-,N/A,,Clear,150,2013-02-06 10:19:00
4:26 AM,21.2,19.4,93,30.13,3.0,South,3.5,-,N/A,,Clear,170,2013-02-06 10:26:00
4:53 AM,21.9,19.9,92,30.17,4.0,Calm,Calm,-,N/A,,Clear,0,2013-02-06 10:53:00
5:53 AM,21.0,19.9,96,30.17,5.0,SE,3.5,-,N/A,,Clear,130,2013-02-06 11:53:00
6:53 AM,21.9,19.9,92,30.16,5.0,SE,4.6,-,N/A,,Clear,140,2013-02-06 12:53:00
7:53 AM,25.0,23.0,92,30.17,4.0,SE,5.8,-,N/A,,Clear,130,2013-02-06 13:53:00
8:53 AM,28.9,27.0,92,30.17,6.0,SSE,8.1,-,N/A,,Clear,150,2013-02-06 14:53:00
9:53 AM,34.0,28.9,82,30.16,8.0,SSE,9.2,-,N/A,,Clear,150,2013-02-06 15:53:00
10:53 AM,36.0,30.0,79,30.15,8.0,SSE,9.2,-,N/A,,Clear,160,2013-02-06 16:53:00
11:53 AM,39.9,30.9,70,30.11,10.0,SSE,15.0,21.9,N/A,,Clear,160,2013-02-06 17:53:00
12:53 PM,42.1,32.0,67,30.09,10.0,South,12.7,-,N/A,,Clear,180,2013-02-06 18:53:00
1:53 PM,43.0,32.0,65,30.05,10.0,SSE,11.5,-,N/A,,Clear,160,2013-02-06 19:53:00
2:53 PM,44.1,33.1,65,30.03,10.0,SSE,10.4,-,N/A,,Clear,160,2013-02-06 20:53:00
3:53 PM,44.1,33.1,65,30.01,10.0,SSE,11.5,-,N/A,,Partly Cloudy,150,2013-02-06 21:53:00
4:53 PM,43.0,32.0,65,29.99,10.0,SSE,10.4,-,N/A,,Partly Cloudy,150,2013-02-06 22:53:00
5:53 PM,39.0,32.0,76,30.00,10.0,SE,8.1,-,N/A,,Partly Cloudy,130,2013-02-06 23:53:00
6:53 PM,41.0,30.9,67,29.99,10.0,SSE,12.7,-,N/A,,Scattered Clouds,150,2013-02-07 00:53:00
7:53 PM,41.0,30.9,67,29.98,10.0,SSE,13.8,-,N/A,,Overcast,150,2013-02-07 01:53:00
8:53 PM,41.0,30.9,67,29.98,10.0,SSE,10.4,-,N/A,,Overcast,160,2013-02-07 02:53:00
9:53 PM,41.0,30.9,67,29.97,10.0,SSE,12.7,-,N/A,,Overcast,150,2013-02-07 03:53:00
10:53 PM,41.0,30.9,67,29.96,10.0,South,13.8,-,N/A,,Overcast,170,2013-02-07 04:53:00
11:53 PM,39.0,32.0,76,29.96,10.0,South,11.5,-,N/A,,Overcast,170,2013-02-07 05:53:00